Home   Weather   Abilene   Past weeks

Flag for USA Past Weather in Abilene, Texas, USA — Yesterday and Last 2 Weeks

Now
80 °F

Sunny.


Feels Like: 80 °F
Forecast: 68 / 91 °F
Wind: 9 mph from East

Location: Abilene Regional Airport

Current Time: Apr 28, 2017 at 3:21:36 pm

Latest Report: Apr 28, 2017 at 1:52 pm


Visibility: 10 mi

Pressure: 29.53 "Hg (27.82 "Hg at 524m altitude)

Humidity: 36%

Dew Point: 51 °F

Location of AbileneLocation

Past Weather in Abilene — Graph

°F

Abilene Temperature Yesterday

Maximum temperature yesterday: 87 °F (at 3:52 pm)
Minimum temperature yesterday: 46 °F (at 3:52 am)
Average temperature yesterday: 67 °F

High & Low Weather Summary for the Past Weeks

 TemperatureHumidityPressure
High93 °F (Apr 25, 2:52 pm)100% (Apr 14, 1:52 am)30.23 "Hg (Apr 14, 1:52 am)
Low40 °F (Apr 23, 5:52 am)13% (Apr 25, 3:52 pm)29.32 "Hg (Apr 25, 6:52 pm)
Average68 °F66%29.84 "Hg
* Reported Apr 13 1:52 pm — Apr 28 1:52 pm, Abilene, Weather by CustomWeather, © 2017

Note: Actual official high and low records may vary slightly from our data, if they occured in-between our weather recording intervals... More about our weather records

Advertising

Abilene Weather History for the Previous 24 Hours

Scroll right to see more
 ConditionsComfort  
Time TempWeatherWind HumidityBarometerVisibility
1:52 pm
Fri, Apr 28
80 °FSunny.9 mph36%29.53 "Hg10 mi
12:52 pm76 °FSunny.3 mph45%29.57 "Hg10 mi
11:52 am68 °FSunny.5 mph59%29.59 "Hg10 mi
10:52 am67 °FSunny.6 mph61%29.60 "Hg10 mi
9:52 am66 °FSunny.13 mph61%29.59 "Hg10 mi
8:52 am70 °FScattered clouds.10 mph73%29.55 "Hg9 mi
7:52 am69 °FPassing clouds.3 mph84%29.53 "Hg8 mi
6:52 am70 °FClear.15 mph79%29.46 "Hg10 mi
5:52 am71 °FClear.24 mph73%29.42 "Hg10 mi
4:52 am72 °FClear.20 mph68%29.41 "Hg10 mi
3:52 am71 °FClear.21 mph63%29.40 "Hg10 mi
2:52 am70 °FClear.18 mph61%29.40 "Hg10 mi
1:52 am71 °FClear.16 mph55%29.42 "Hg10 mi
12:52 am72 °FClear.18 mph49%29.42 "Hg10 mi
11:52 pm
Thu, Apr 27
73 °FClear.21 mph44%29.43 "Hg10 mi
10:52 pm73 °FClear.17 mph44%29.45 "Hg10 mi
9:52 pm75 °FClear.16 mph43%29.44 "Hg10 mi
8:52 pm79 °FClear.20 mph35%29.41 "Hg10 mi
7:52 pm82 °FSunny.17 mph29%29.42 "Hg10 mi
6:52 pm85 °FSunny.23 mph22%29.41 "Hg10 mi
5:52 pm87 °FSunny.23 mph20%29.41 "Hg10 mi
4:52 pm87 °FSunny.23 mph19%29.44 "Hg10 mi
3:52 pm87 °FSunny.17 mph19%29.48 "Hg10 mi
Weather by CustomWeather, © 2017

See weather overviewHow to use our weather pages